TimeEST,TemperatureF,Dew PointF,Humidity,Sea Level PressureIn,VisibilityMPH,Wind Direction,Wind SpeedMPH,Gust SpeedMPH,PrecipitationIn,Events,Conditions,WindDirDegrees,DateUTC
12:54 AM,34.0,27.0,75,30.18,10.0,NNW,6.9,-,N/A,,Overcast,340,2012-12-09 05:54:00
1:54 AM,34.0,27.0,75,30.22,10.0,North,8.1,-,N/A,,Overcast,350,2012-12-09 06:54:00
2:54 AM,32.0,25.0,75,30.23,10.0,North,10.4,-,N/A,,Overcast,360,2012-12-09 07:54:00
3:54 AM,30.9,24.1,76,30.26,10.0,North,8.1,-,N/A,,Overcast,350,2012-12-09 08:54:00
4:54 AM,30.9,24.1,76,30.25,10.0,North,6.9,-,N/A,,Overcast,10,2012-12-09 09:54:00
5:54 AM,30.0,21.9,72,30.27,10.0,NNE,9.2,-,N/A,,Overcast,30,2012-12-09 10:54:00
6:18 AM,28.4,21.2,74,30.26,10.0,NNE,6.9,-,N/A,,Mostly Cloudy,30,2012-12-09 11:18:00
6:54 AM,28.9,19.0,67,30.28,10.0,NE,5.8,-,N/A,,Mostly Cloudy,40,2012-12-09 11:54:00
7:54 AM,28.9,19.9,69,30.28,10.0,ENE,6.9,-,N/A,,Mostly Cloudy,60,2012-12-09 12:54:00
8:54 AM,28.9,19.0,67,30.27,10.0,NE,9.2,-,N/A,,Overcast,40,2012-12-09 13:54:00
9:54 AM,30.0,21.0,69,30.26,10.0,NE,10.4,-,N/A,,Mostly Cloudy,50,2012-12-09 14:54:00
10:13 AM,30.2,21.2,69,30.24,10.0,NE,6.9,-,N/A,,Mostly Cloudy,40,2012-12-09 15:13:00
10:54 AM,32.0,24.1,73,30.25,10.0,NE,10.4,-,N/A,,Mostly Cloudy,50,2012-12-09 15:54:00
11:54 AM,34.0,27.0,75,30.18,10.0,East,15.0,19.6,N/A,,Overcast,80,2012-12-09 16:54:00
12:54 PM,37.0,28.9,73,30.14,10.0,East,12.7,-,N/A,,Overcast,80,2012-12-09 17:54:00
1:54 PM,37.0,28.9,73,30.12,10.0,ENE,16.1,-,N/A,,Overcast,70,2012-12-09 18:54:00
2:54 PM,37.0,28.9,73,30.11,10.0,ENE,12.7,-,N/A,,Overcast,70,2012-12-09 19:54:00
3:25 PM,37.4,30.2,75,30.07,7.0,ENE,11.5,-,0.00,Rain,Light Ice Pellets,70,2012-12-09 20:25:00
3:33 PM,35.6,30.2,81,30.06,6.0,ENE,15.0,19.6,0.00,Rain,Rain,60,2012-12-09 20:33:00
3:54 PM,36.0,30.0,79,30.08,10.0,ENE,15.0,-,0.02,Rain,Light Rain,70,2012-12-09 20:54:00
4:54 PM,35.1,30.9,85,30.04,8.0,ENE,13.8,-,0.02,Rain,Light Rain,70,2012-12-09 21:54:00
5:54 PM,35.1,32.0,89,29.99,8.0,East,16.1,-,0.02,Rain,Light Rain,80,2012-12-09 22:54:00
6:07 PM,35.6,32.0,87,29.95,6.0,ENE,16.1,25.3,0.00,Rain,Light Rain,70,2012-12-09 23:07:00
6:54 PM,36.0,33.1,89,29.94,4.0,East,16.1,-,0.05,Rain,Rain,80,2012-12-09 23:54:00
7:54 PM,36.0,34.0,93,29.89,6.0,ENE,11.5,-,0.08,Rain,Rain,70,2012-12-10 00:54:00
8:16 PM,35.6,33.8,93,29.83,2.5,ENE,11.5,-,0.08,Rain,Heavy Rain,60,2012-12-10 01:16:00
8:25 PM,37.4,35.6,93,29.82,3.0,ENE,12.7,-,0.14,Rain,Rain,70,2012-12-10 01:25:00
8:54 PM,37.0,36.0,96,29.83,3.0,East,6.9,-,0.20,Rain,Heavy Rain,80,2012-12-10 01:54:00
9:54 PM,37.9,37.0,97,29.80,5.0,ESE,4.6,-,0.05,Rain,Light Rain,110,2012-12-10 02:54:00
10:54 PM,41.0,39.9,96,29.76,10.0,SSE,6.9,-,0.00,,Overcast,160,2012-12-10 03:54:00
11:54 PM,45.0,42.1,90,29.72,10.0,SSE,9.2,-,0.00,,Overcast,160,2012-12-10 04:54:00